QUANTUTONG 1

导读

QUANTUTONG 1(全通一号)是中国于2018年1月19日发射的通信卫星,是我国低轨通信卫星布局的早期探索成果。该卫星旨在验证卫星通信相关技术体制,为后续我国低轨互联网星座的发展积累工程经验,推动天地一体化网络建设进程,标志着中国在商业卫星通信领域迈出了重要一步,对我国卫星通信产业发展具有技术探路意义。

Basic Information
目录编号:
43158
目录名称:
QUANTUTONG 1
国际标识:
2018-008D
轨道中心:
EARTH
卫星名称:
QUANTUTONG 1
卫星全名:
--
卫星状态:
已陨落 最后检测时间 2024-11-27
发射日期:
2018-01-19 UTC
国别 :
中国 (CN)
星等 :
--
Orbit Information
数据来源 国际轨道数据
星历时间: 2024-10-16T05:41:59+0800
轨道信息已过期636天
半长轴: 6626.469km
偏心率: 0.0006509
轨道倾角: 97.249°
近地点辐角 265.869°
升交点赤经 341.249°
平近点角 94.185°
近地点: 244.02km
远地点: 252.648km
周期: 89.471分钟
每日圈数: 16.094576
Detailed Information
使用方式:
暂无